Flag for Martinique Weather past 2 weeks in Fort-de-France, Martinique

Now
75 °F

Passing clouds.


Feels Like: 75 °F
Forecast: 74 / 84 °F
Wind: 9 mph from Northeast

Location: Le Lamentin Airport

Current Time: Feb 28, 2015 at 3:30:41 AM

Latest Report: Feb 28, 2015 at 3:00 AM


Visibility: N/A

Pressure: 29.98 "Hg

Humidity: 83%

Dew point: 70 °F

Location of Fort-de-FranceLocation

Historic Weather in Fort-de-France — Graph

°F

Fort-de-France temperature yesterday

Maximum temperature yesterday: 84 °F (at 11:00 AM)
Minimum temperature yesterday: 75 °F (at 2:00 AM)
Average temperature yesterday: 79 °F

Past Weeks' High & Low Weather Summary

 TemperatureHumidityPressure
High88 °F (Feb 13, 12:30 PM)100% (Feb 13, 3:00 AM)30.07 "Hg (Feb 13, 3:00 AM)
Low70 °F (Feb 16, 1:30 AM)51% (Feb 25, 2:30 PM)29.89 "Hg (Feb 19, 4:00 PM)
Average79 °F74%30.00 "Hg
* Reported Feb 13 2:00 AM — Feb 28 2:30 AM, Fort-de-France, Weather by CustomWeather, © 2015

Note: Actual official high and low records may vary slightly from our data, if they occured in-between our weather recording intervals... More about our weather records

Advertising

Fort-de-France weather history for previous 24 hours

 ConditionsComfort  
Time TempWeatherWind HumidityBarometerVisibility
2:30 AM
Sat, Feb 28
77 °FPartly cloudy.12 mph79%29.98 "HgN/A
2:00 AM77 °FPartly cloudy.12 mph79%29.98 "HgN/A
1:30 AM77 °FPartly cloudy.16 mph79%30.01 "HgN/A
1:00 AM77 °FClear.14 mph74%30.01 "HgN/A
12:30 AM77 °FClear.13 mph74%30.01 "HgN/A
12:00 AM77 °FClear.14 mph69%30.01 "HgN/A
11:30 PM
Fri, Feb 27
77 °FPassing clouds.13 mph69%30.01 "HgN/A
11:00 PM77 °FClear.12 mph69%30.04 "HgN/A
10:30 PM77 °FPassing clouds.12 mph74%30.04 "HgN/A
10:00 PM77 °FClear.12 mph74%30.04 "HgN/A
9:30 PM77 °FPartly cloudy.15 mph79%30.04 "HgN/A
9:00 PM79 °FPartly cloudy.13 mph70%30.04 "HgN/A
8:30 PM79 °FPassing clouds.13 mph70%30.04 "HgN/A
8:00 PM79 °FPartly cloudy.13 mph65%30.01 "HgN/A
7:30 PM79 °FPassing clouds.12 mph70%30.01 "HgN/A
7:00 PM79 °FClear.13 mph65%30.01 "HgN/A
6:30 PM77 °FOvercast.10 mph74%29.98 "HgN/A
6:00 PM77 °FClear.9 mph79%29.98 "HgN/A
5:30 PM77 °FPartly sunny.12 mph83%29.98 "HgN/A
5:00 PM77 °FMostly cloudy.14 mph79%29.98 "HgN/A
4:30 PM77 °FBroken clouds.10 mph83%29.98 "HgN/A
4:00 PM84 °FPassing clouds.16 mph58%29.98 "HgN/A
3:30 PM84 °FScattered clouds.15 mph58%29.98 "HgN/A
3:00 PM82 °FPartly sunny.15 mph62%29.98 "HgN/A
2:30 PM82 °FPartly sunny.20 mph62%29.98 "HgN/A
2:00 PM84 °FBroken clouds.20 mph58%30.01 "HgN/A
1:30 PM82 °FPartly sunny.20 mph62%30.01 "HgN/A
1:00 PM84 °FScattered clouds.20 mph55%30.01 "HgN/A
12:30 PM84 °FClear.18 mph55%30.04 "HgN/A
12:00 PM84 °FBroken clouds.20 mph58%30.04 "HgN/A
11:30 AM82 °FBroken clouds.16 mph62%30.04 "HgN/A
11:00 AM84 °FPartly sunny.18 mph58%30.07 "HgN/A
10:30 AM82 °FPartly sunny.18 mph62%30.07 "HgN/A
10:00 AM82 °FPartly sunny.18 mph62%30.07 "HgN/A
9:30 AM82 °FBroken clouds.20 mph66%30.07 "HgN/A
9:00 AM81 °FPartly sunny.16 mph70%30.07 "HgN/A
8:30 AM82 °FScattered clouds.15 mph66%30.04 "HgN/A
8:00 AM79 °FBroken clouds.17 mph70%30.04 "HgN/A
7:30 AM77 °FPartly sunny.12 mph79%30.04 "HgN/A
7:00 AM77 °FOvercast.12 mph74%30.01 "HgN/A
6:30 AM77 °FLight rain. Partly sunny.13 mph74%30.01 "HgN/A
6:00 AM77 °FPassing clouds.6 mph74%30.01 "HgN/A
5:30 AM77 °FPartly cloudy.10 mph74%29.98 "HgN/A
5:00 AM75 °FPartly cloudy.12 mph83%29.98 "HgN/A
4:30 AM75 °FOvercast.10 mph78%29.98 "HgN/A
4:00 AM75 °FOvercast.15 mph83%29.98 "HgN/A
3:30 AM75 °FLight rain. Partly cloudy.8 mph89%29.98 "HgN/A
3:00 AM77 °FPassing clouds.8 mph79%30.01 "HgN/A
Weather by CustomWeather, © 2015

See weather overviewHow to use our weather pages